"Pseudo-MPEC" for C0AHVC2

Created 2019 Mar 17 4:18:14 UT using Find_Orb

Click here for an explanation of pseudo-MPECs

 
 Astrometry: 
     C0AHVC2  C2019 03 15.19388 09 31 43.81 -17 48 45.3    ~3F83 21.6 GVNEOCPG96
     C0AHVC2  C2019 03 15.20507 09 31 44.29 -17 48 15.0    ~3F83 20.6 GVNEOCPG96
     C0AHVC2  C2019 03 15.21068 09 31 44.63 -17 47 58.5    ~3F83 20.0 GVNEOCPG96
     C0AHVC2  C2019 03 15.30682 09 31 49.28 -17 43 32.0    ~3F8I 20.0 GVNEOCPG96
     C0AHVC2  C2019 03 15.30792 09 31 49.31 -17 43 28.3    ~3F8I 20.1 GVNEOCPG96
     C0AHVC2  C2019 03 15.31070 09 31 49.44 -17 43 20.6    ~3F8I 20.4 GVNEOCPG96
     C0AHVC2 KC2019 03 16;6pAstrometryv;/1sX!tDj+1dredacted;]#APx2b:v+!pKw24bH21
     C0AHVC2 KC2019 03 16+F=Hclick@?F\/QnthKo?#\[=XghereC3g:8LLZ1rwY8qYNeBTSHH21
     C0AHVC2 KC2019 03 16JLK`.forCuf+ZC5`IIrAG+3e;xP8explanationS]`W01=T5mutcH21
     C0AHVC2  C2019 03 17.14515 09 33 31.13 -16 18 45.0    ~3H43 19.7 GVNEOCPI52
     C0AHVC2  C2019 03 17.14890 09 33 31.27 -16 18 34.4    ~3H43 20.2 GVNEOCPI52
     C0AHVC2  C2019 03 17.15265 09 33 31.49 -16 18 23.3    ~3H43       VNEOCPI52
     C0AHVC2  C2019 03 17.15640 09 33 31.74 -16 18 13.9    ~3H43       VNEOCPI52

Station data:
(G96) Mt. Lemmon Survey  (N32.442754 W110.788720)  US/Arizona.  Observers B.
   M. Africano, E. J. Christensen, G. A. Farneth, D. C. Fuls, A. R. Gibbs, A.
   D. Grauer, H. Groeller, J. A. Johnson, R. A. Kowalski, S. M. Larson, G. J.
   Leonard, R. L. Seaman, F. C. Shelly. 1.5-m reflector + 10K CCD.
(H21) Astronomical Research Observatory, Westfield  (N39.483057 W87.968270)
   US/Illinois. 0.76-m f/3.0 astrograph + CCD.
(I52) Steward Observatory, Mt. Lemmon Station  (N32.442547 W110.788920)
   US/Arizona.  Observers B. M. Africano, E. J. Christensen, G. A. Farneth,
   D. C. Fuls, A. R. Gibbs, A. D. Grauer, H. Groeller, J. A. Johnson, R. A.
   Kowalski, S. M. Larson, G. J. Leonard, R. L. Seaman, F. C. Shelly. 1.0-m
   reflector + CCD.

Orbital elements:  C0AHVC2
   Perihelion 2019 Jan 11.775069 TT = 18:36:06 (JD 2458495.275069)
Epoch 2019 Mar 17.0 TT = JDT 2458559.5   Earth MOID: 0.6200   AutoNEOCP
M  14.99801644                      (J2000 ecliptic)
n   0.23352327     Peri.  292.93580
a   2.61165574     Node   189.91048
e   0.4478049      Incl.   28.15034
P   4.22           H   19.5     G   0.15   q 1.44214342  Q 3.78116806
From 13 observations 2019 Mar. 15-17 (47.1 hr); mean residual 0".36
Residuals in arcseconds: 
190315 G96  .30+  .20+    190315 G96  .27-  .19+    190317 I52  .57-  .06-    
190315 G96  .57-  .53-    190316 H21  .23-  .04-    190317 I52  .21-  .73+    
190315 G96  .42+  .41+    190316 H21  .09+  .33+    190317 I52  .59+  .17-    
190315 G96  .17+  .40-    190316 H21  .37+  .26-    
190315 G96  .17-  .24+    190317 I52  .22+  .36-    

Ephemerides (geocentric):
Date (UTC) HH   RA              Dec         delta   r     elong  mag
---- -- -- --  -------------   -----------  ------ ------ -----  ---
2019 03 17 04  09 33 31.959   -16 17 35.58  .65180 1.5648 142.9 20.6
2019 03 17 05  09 33 34.314   -16 15 40.75  .65196 1.5649 142.9 20.6
2019 03 17 06  09 33 36.671   -16 13 45.93  .65212 1.5651 142.9 20.6
2019 03 17 07  09 33 39.031   -16 11 51.14  .65228 1.5652 142.9 20.6
2019 03 17 08  09 33 41.393   -16 09 56.38  .65244 1.5654 142.9 20.6
2019 03 17 09  09 33 43.759   -16 08 01.63  .65260 1.5655 142.9 20.6
2019 03 17 10  09 33 46.127   -16 06 06.92  .65276 1.5657 142.9 20.6
2019 03 17 11  09 33 48.497   -16 04 12.22  .65292 1.5658 142.9 20.6
2019 03 17 12  09 33 50.871   -16 02 17.56  .65309 1.5660 142.9 20.6
2019 03 17 13  09 33 53.247   -16 00 22.91  .65325 1.5661 142.8 20.6
2019 03 17 14  09 33 55.626   -15 58 28.30  .65341 1.5663 142.8 20.6
2019 03 17 15  09 33 58.007   -15 56 33.70  .65358 1.5664 142.8 20.6
2019 03 17 16  09 34 00.391   -15 54 39.14  .65374 1.5666 142.8 20.6
2019 03 17 17  09 34 02.778   -15 52 44.60  .65391 1.5667 142.8 20.6
2019 03 17 18  09 34 05.168   -15 50 50.08  .65407 1.5669 142.8 20.6
2019 03 17 19  09 34 07.560   -15 48 55.59  .65424 1.5670 142.8 20.6
2019 03 17 20  09 34 09.955   -15 47 01.13  .65440 1.5672 142.8 20.6
2019 03 17 21  09 34 12.353   -15 45 06.70  .65457 1.5673 142.8 20.6
2019 03 17 22  09 34 14.753   -15 43 12.29  .65474 1.5675 142.8 20.6
2019 03 17 23  09 34 17.156   -15 41 17.91  .65490 1.5676 142.8 20.6
2019 03 18 00  09 34 19.561   -15 39 23.56  .65507 1.5678 142.8 20.6
2019 03 18 01  09 34 21.970   -15 37 29.23  .65524 1.5679 142.8 20.6
2019 03 18 02  09 34 24.381   -15 35 34.93  .65541 1.5681 142.8 20.6
2019 03 18 03  09 34 26.794   -15 33 40.66  .65558 1.5682 142.8 20.6
2019 03 18 04  09 34 29.211   -15 31 46.42  .65575 1.5683 142.8 20.6
2019 03 18 05  09 34 31.630   -15 29 52.21  .65592 1.5685 142.8 20.6
2019 03 18 06  09 34 34.051   -15 27 58.03  .65609 1.5686 142.8 20.6
2019 03 18 07  09 34 36.475   -15 26 03.87  .65626 1.5688 142.8 20.6
2019 03 18 08  09 34 38.902   -15 24 09.75  .65643 1.5689 142.8 20.6
2019 03 18 09  09 34 41.332   -15 22 15.65  .65660 1.5691 142.8 20.6
2019 03 18 10  09 34 43.764   -15 20 21.59  .65678 1.5692 142.8 20.6
2019 03 18 11  09 34 46.199   -15 18 27.55  .65695 1.5694 142.8 20.6
2019 03 18 12  09 34 48.637   -15 16 33.54  .65712 1.5695 142.8 20.6
2019 03 18 13  09 34 51.077   -15 14 39.57  .65730 1.5697 142.8 20.6
2019 03 18 14  09 34 53.520   -15 12 45.62  .65747 1.5698 142.7 20.6
2019 03 18 15  09 34 55.965   -15 10 51.71  .65764 1.5700 142.7 20.6
2019 03 18 16  09 34 58.413   -15 08 57.83  .65782 1.5701 142.7 20.6
2019 03 18 17  09 35 00.864   -15 07 03.97  .65799 1.5703 142.7 20.6
2019 03 18 18  09 35 03.317   -15 05 10.15  .65817 1.5704 142.7 20.6
2019 03 18 19  09 35 05.773   -15 03 16.36  .65835 1.5706 142.7 20.6
2019 03 18 20  09 35 08.232   -15 01 22.61  .65852 1.5707 142.7 20.6
2019 03 18 21  09 35 10.693   -14 59 28.88  .65870 1.5709 142.7 20.6
2019 03 18 22  09 35 13.157   -14 57 35.19  .65888 1.5711 142.7 20.6
2019 03 18 23  09 35 15.624   -14 55 41.53  .65906 1.5712 142.7 20.6
2019 03 19 00  09 35 18.093   -14 53 47.90  .65923 1.5714 142.7 20.6
2019 03 19 01  09 35 20.565   -14 51 54.31  .65941 1.5715 142.7 20.6
2019 03 19 02  09 35 23.039   -14 50 00.75  .65959 1.5717 142.7 20.6
2019 03 19 03  09 35 25.516   -14 48 07.22  .65977 1.5718 142.7 20.6